Location: Owatonna
(44.0840°N, 93.2260°W)
Time: 23:21:34
(UTC-05:00)

Daily predictions for brighter satellites

Satellite Brightness Start Highest point End
(mag) Time Altitude Azimuth Time Altitude Azimuth Time Altitude Azimuth
SPOT 3 Rocket 4.1 18:39:20 10° SE 18:44:04 37° ENE 18:48:51 10° N
CZ-2C R/B 4.3 18:40:41 10° SSW 18:44:52 35° W 18:49:09 10° NNW
Cosmos 2360 Rocket 2.4 18:41:07 10° NNW 18:46:48 81° WSW 18:52:27 10° SSE
Cosmos 1400 Rocket 3.1 18:47:20 10° NNW 18:51:22 74° W 18:55:18 10° S
COSMO-SKYMED 1 3.0 18:50:57 10° NNE 18:55:02 39° E 18:59:06 10° SSE
CZ-4C R/B 2.7 18:50:52 10° S 18:55:37 38° ESE 19:00:57 10° NE
Cosmos 2151 3.0 18:52:40 10° N 18:56:59 89° WSW 19:01:13 10° S
Cosmos 2058 3.0 18:54:06 10° N 18:58:19 88° WSW 19:02:27 10° S
Cosmos 2098 Rocket 4.2 18:54:22 10° SSE 18:58:43 34° E 19:04:04 10° NNE
Abrixas 2.7 18:58:48 10° SW 19:00:45 31° SSE 19:02:09 15° E
COSMOS 2428 2.7 18:55:17 10° NNW 19:00:55 61° ENE 19:06:33 10° SE
Cosmos 2366 rocket 4.3 18:56:09 10° SSW 19:02:21 75° W 19:08:33 10° N
FENGYUN 3A 4.1 18:57:42 10° SE 19:02:40 39° ENE 19:07:41 10° N
Cosmos 2333 Rocket 2.8 18:58:20 10° NNW 19:03:38 36° NE 19:08:55 10° ESE
Cosmos 1805 Rocket 4.1 19:01:14 10° N 19:05:18 35° ENE 19:09:21 10° SE
Cosmos 44 Rocket 3.3 19:01:31 10° SSW 19:06:08 58° ESE 19:10:45 10° NE
Cosmos 2219 3.6 19:00:45 10° S 19:06:09 44° ESE 19:11:35 10° NE
MOS 1 4.3 19:03:21 10° SSE 19:09:00 75° ENE 19:14:42 10° NNW
Cosmos 158 Rocket 3.9 19:05:49 10° S 19:10:50 68° ESE 19:16:03 10° NNE
ERS-2 3.0 19:09:24 10° S 19:13:01 53° WSW 19:16:40 10° NNW
Cosmos 2297 Rocket 3.7 19:10:01 10° SE 19:13:02 15° E 19:14:05 14° E
Cosmos 1666 Rocket 4.3 19:10:53 10° NNE 19:14:40 29° ENE 19:18:25 10° SE
GRACE-2 3.5 19:13:43 10° S 19:16:15 80° E 19:18:50 10° N
Cosmos 1048 Rocket 3.9 19:11:33 10° S 19:16:36 63° ESE 19:21:40 10° NNE
APEX 2.3 19:13:33 10° SSW 19:16:37 76° ESE 19:19:23 10° NNE
YAOGAN 1 3.0 19:13:22 10° S 19:17:40 67° WSW 19:22:00 10° NNW
Cosmos 1633 Rocket 4.0 19:15:31 10° NNE 19:19:20 27° ENE 19:23:06 10° SE
Cosmos 1726 2.5 19:16:38 10° SSE 19:20:06 40° E 19:23:34 10° NNE
Cosmos 1420 Rocket 4.4 19:16:14 10° NNW 19:21:33 70° WSW 19:26:46 10° S
CZ-4 R/B 3.0 19:17:40 10° S 19:21:37 40° W 19:25:32 10° NNW
GRACE-1 3.8 19:19:24 10° S 19:21:58 76° W 19:24:34 10° N
EO 1 Del DPAF 3.3 19:18:33 10° NNE 19:22:25 84° WNW 19:26:16 10° SSW
SKYMED 3 4.5 19:20:49 10° NNE 19:25:11 83° ESE 19:29:32 10° SSW
NOAA 12 4.0 19:26:59 10° SSE 19:32:16 76° ENE 19:37:37 10° N
Cosmos 2219 Rocket 2.1 19:27:50 10° NNW 19:33:26 69° ENE 19:39:02 10° SSE
Cosmos 1000 Rocket 4.4 19:28:20 10° N 19:34:36 81° E 19:40:46 10° S
Cosmos 1934 Rocket 4.1 19:30:04 10° SSE 19:36:11 52° E 19:42:20 10° NNE
FengYun 1-2 T 4.5 19:31:20 10° SE 19:36:32 45° ENE 19:41:44 10° N
Cosmos 1821 Rocket 3.9 19:31:53 10° S 19:38:00 71° E 19:44:16 10° NNE
Cosmos 2221 2.8 19:34:24 10° SSW 19:38:42 72° W 19:43:05 10° N
Cosmos 2084 3.1 19:34:57 10° NNW 19:38:43 65° NE 19:40:52 25° SE
Cosmos 1315 Rocket 4.3 19:36:03 10° NNW 19:39:53 40° W 19:43:45 10° SSW
ALOS 2.2 19:36:24 10° SSE 19:41:04 85° E 19:45:46 10° NNW
Thor Agena Rocket 3.7 19:37:46 10° NNE 19:42:41 47° E 19:47:31 10° S
SKYMED 2 4.0 19:38:52 10° N 19:43:11 63° WNW 19:47:27 10° SSW
Cosmos 2239 Rocket 4.4 19:37:15 10° S 19:43:22 77° E 19:49:32 10° N
USA 267 4.4 19:48:33 20° ESE 19:48:44 20° ESE 19:53:18 10° SSE
Cosmos 1331 Rocket 4.0 19:43:57 10° NNW 19:49:06 55° ENE 19:52:42 19° SE
SJ-6B 2.8 20:01:34 52° ENE 20:01:34 52° ENE 20:04:59 10° N
BREEZE-M DEB (TANK) 4.0 19:41:45 10° WNW 20:01:43 83° NNE 20:04:20 34° ESE
Lacrosse 5 rocket 3.5 20:01:28 10° NNW 20:03:57 15° N 20:04:48 14° NNE
Cosmos 2123 Rocket 3.9 20:01:09 10° N 20:07:26 83° E 20:13:43 10° S
Aureole 2 Rocket 3.9 20:04:02 10° NNW 20:07:49 44° WSW 20:11:41 10° S
In-Cosmos 22 Rocket 4.2 20:02:45 10° N 20:08:32 80° E 20:14:22 10° SSE
MOS 1-B Rocket 4.1 20:06:25 32° ESE 20:08:43 50° ENE 20:14:46 10° N
H-2A R/B 2.7 20:07:18 26° SSE 20:09:27 89° ENE 20:13:24 10° NNW
Cosmos 44 4.4 20:06:22 10° WSW 20:10:23 37° NW 20:13:49 13° NNE
Cosmos 2237 Rocket 2.1 20:05:05 10° NNW 20:10:49 74° ENE 20:13:39 31° SE
Cosmos 1605 Rocket 3.8 20:06:29 10° S 20:12:31 67° E 20:18:33 10° NNE
Cosmos 1470 Rocket 4.0 20:08:52 10° N 20:12:26 44° NE 20:12:26 44° NE
Cosmos 967 Rocket 4.5 20:08:29 10° NNW 20:14:56 65° NE 20:17:17 40° ESE
SL-8 R/B 4.2 20:10:57 10° W 20:15:40 50° N 20:16:43 42° NE
Abrixas rocket 3.1 20:13:32 10° WNW 20:16:04 44° NW 20:16:04 44° NW
Cosmos 1302 Rocket 4.0 20:13:19 10° NNW 20:18:29 57° ENE 20:18:55 55° E
Cosmos 2227 Rocket 2.1 20:13:31 10° S 20:19:04 63° ESE 20:21:12 38° NE
SWAS 4.3 20:15:01 10° SSW 20:19:08 76° SE 20:19:08 76° SE
SL-16 R/B 2.7 20:18:12 10° NNW 20:23:15 41° NE 20:23:15 41° NE
NOSS 0 Rocket 4.2 20:17:35 10° NNW 20:23:43 68° WSW 20:28:59 14° SSE
Cosmos 1300 3.6 20:20:24 10° SSW 20:24:07 48° WNW 20:27:50 10° N
USA 234 4.2 20:23:45 28° NE 20:25:46 33° NNE 20:31:29 10° NW
Sich 1 4.1 20:22:41 10° NNW 20:26:53 46° W 20:31:05 10° SSW
Spot 2 Rocket 4.3 20:29:34 36° NNE 20:29:34 36° NNE 20:32:57 10° N
Cosmos 494 Rocket 3.9 20:24:52 10° SSW 20:29:59 84° WNW 20:33:04 25° NNE
Resurs 01 Rocket 3.1 20:35:06 27° N 20:35:06 27° N 20:37:13 10° N
Cosmos 1980 3.9 20:29:37 10° NNW 20:35:14 68° WSW 20:37:55 31° S
ATLAS 5 CENTAUR R/B 4.2 20:32:29 10° NNW 20:35:38 16° NNE 20:35:38 16° NNE
Meteor 2-17 Rocket 4.3 20:30:23 10° S 20:36:20 64° E 20:42:22 10° NNE
Meteor 2-3 Rocket 3.6 20:36:30 10° N 20:42:18 83° E 20:42:50 73° SE
CZ-4C R/B 3.4 20:39:00 10° WSW 20:44:03 40° NW 20:48:07 18° NNE
USA 32 4.0 20:39:05 10° N 20:44:20 80° W 20:45:20 59° SSW
Cosmos 1447 Rocket 4.4 20:38:43 10° N 20:45:05 89° E 20:47:22 43° S
Cosmos 2333 Rocket 3.5 20:42:38 10° NW 20:47:54 37° WSW 20:53:08 10° S
Cosmos 2297 Rocket 2.2 20:50:39 10° SSW 20:56:00 78° WSW 20:56:00 78° WSW
Envisat 3.9 21:05:02 41° NNW 21:05:02 41° NNW 21:08:20 10° NNW
Cosmos 2251 Rocket 4.0 21:00:55 10° SW 21:06:04 57° WNW 21:06:04 57° WNW
Cosmos 2082 4.0 21:01:09 10° SSW 21:06:19 65° W 21:06:19 65° W
USA 267 4.5 21:35:57 30° SW 21:35:57 30° SW 21:38:58 10° SW
Cosmos 2227 Rocket 4.2 21:59:07 10° WSW 22:03:07 23° WNW 22:03:07 23° WNW
SL-16 R/B 4.3 22:02:36 10° NW 22:05:09 23° WNW 22:05:09 23° WNW
